Date String (YYYY-MM-DD hh:mm:ss) UTC,Instrument flags,Ambient pressure (hPa),Sample flow (lpm),Bypass flow (lpm),Sample temperature (°C),Ambient temperature (°C),ASC tube jacket temperature (°C),LED temperature (°C),Box temperature (°C),Sample RH (%),Span deviation,Mass concentration (μg/m³),Mass concentration (μg/m³),Mass concentration (μg/m³)
DateTimeUTC,F1_M11,P_M11,Q1_M11,Q2_M11,T1_M11,T2_M11,T3_M11,T4_M11,T5_M11,U1_M11,ZSPAN_M11,X0_M11,X2_M11,X1_M11
2022-11-07 20:00:00,,0823.3,5.00,0.00,26.5,25.4,00.0,35.2,28.5,13.2,0000.0,0013.76,0004.74,0003.62
2022-11-07 20:01:00,,0823.4,4.99,0.00,26.5,25.4,00.0,35.2,28.4,13.2,0000.0,0013.65,0004.72,0003.63
2022-11-07 20:02:00,,0823.4,5.01,0.00,26.5,25.3,00.0,35.2,28.5,13.2,0000.0,0013.81,0004.72,0003.64
2022-11-07 20:03:00,,0823.3,5.01,0.00,26.5,25.3,00.0,35.2,28.5,13.2,0000.0,0013.43,0004.68,0003.64
2022-11-07 20:04:00,,0823.3,4.99,0.00,26.6,25.3,00.0,35.3,28.5,13.1,0000.0,0013.40,0004.69,0003.64
2022-11-07 20:05:00,,0823.4,4.98,0.00,26.6,25.4,00.0,35.3,28.4,13.1,0000.0,0013.52,0004.76,0003.66
2022-11-07 20:06:00,,0823.4,5.02,0.00,26.6,25.4,00.0,35.3,28.5,13.1,0000.0,0013.51,0004.77,0003.67
2022-11-07 20:07:00,,0823.4,4.99,0.00,26.6,25.4,00.0,35.3,28.5,13.1,0000.0,0013.63,0004.75,0003.66
2022-11-07 20:08:00,,0823.4,5.00,0.00,26.6,25.5,00.0,35.3,28.5,13.0,0000.0,0014.14,0004.76,0003.67
2022-11-07 20:09:00,,0823.4,5.01,0.00,26.6,25.5,00.0,35.3,28.6,13.1,0000.0,0013.98,0004.75,0003.67
2022-11-07 20:10:00,,0823.3,4.98,0.00,26.6,25.5,00.0,35.3,28.6,13.0,0000.0,0014.53,0004.74,0003.67
2022-11-07 20:11:00,,0823.3,5.01,0.00,26.6,25.5,00.0,35.3,28.6,13.0,0000.0,0015.22,0004.73,0003.67
2022-11-07 20:12:00,,0823.2,4.99,0.00,26.7,25.5,00.0,35.3,28.6,13.0,0000.0,0015.68,0004.78,0003.69
2022-11-07 20:13:00,,0823.2,4.99,0.00,26.7,25.5,00.0,35.3,28.6,13.0,0000.0,0015.57,0004.81,0003.70
2022-11-07 20:14:00,,0823.2,5.01,0.00,26.7,25.5,00.0,35.4,28.6,13.0,0000.0,0016.17,0004.85,0003.71
2022-11-07 20:15:00,,0823.2,5.00,0.00,26.7,25.5,00.0,35.4,28.6,13.0,0000.0,0016.23,0004.84,0003.72
2022-11-07 20:16:00,,0823.2,5.00,0.00,26.7,25.6,00.0,35.4,28.6,13.1,0000.0,0016.65,0004.84,0003.73
2022-11-07 20:17:00,,0823.2,5.00,0.00,26.7,25.6,00.0,35.4,28.7,13.1,0000.0,0016.46,0004.80,0003.74
2022-11-07 20:18:00,,0823.2,4.99,0.00,26.7,25.6,00.0,35.4,28.7,13.0,0000.0,0017.09,0004.84,0003.75
2022-11-07 20:19:00,,0823.2,5.02,0.00,26.8,25.6,00.0,35.4,28.7,13.1,0000.0,0016.83,0004.83,0003.76
2022-11-07 20:20:00,,0823.2,5.00,0.00,26.8,25.7,00.0,35.4,28.7,13.0,0000.0,0016.47,0004.86,0003.77
2022-11-07 20:21:00,,0823.2,5.00,0.00,26.8,25.7,00.0,35.4,28.7,12.9,0000.0,0016.02,0004.91,0003.77
2022-11-07 20:22:00,,0823.2,4.99,0.00,26.8,25.7,00.0,35.5,28.8,12.9,0000.0,0016.64,0004.92,0003.76
2022-11-07 20:23:00,,0823.1,5.00,0.00,26.9,25.8,00.0,35.5,28.8,12.9,0000.0,0016.69,0004.86,0003.77
2022-11-07 20:24:00,,0823.2,5.00,0.00,26.9,25.8,00.0,35.5,28.8,12.8,0000.0,0017.09,0004.84,0003.77
2022-11-07 20:25:00,,0823.1,5.01,0.00,26.9,25.8,00.0,35.5,28.8,12.7,0000.0,0017.62,0004.85,0003.77
2022-11-07 20:26:00,,0823.1,4.99,0.00,26.9,25.9,00.0,35.5,28.9,12.7,0000.0,0018.19,0004.90,0003.78
2022-11-07 20:27:00,,0823.1,4.99,0.00,26.9,25.9,00.0,35.5,28.9,12.8,0000.0,0018.62,0004.94,0003.78
2022-11-07 20:28:00,,0823.1,5.02,0.00,26.9,25.9,00.0,35.6,28.9,12.8,0000.0,0018.54,0005.03,0003.79
2022-11-07 20:29:00,,0823.1,5.00,0.00,27.0,25.9,00.0,35.6,28.9,12.7,0000.0,0017.44,0005.07,0003.79
2022-11-07 20:30:00,,0823.1,4.98,0.00,27.0,25.9,00.0,35.6,28.9,12.8,0000.0,0017.56,0005.09,0003.79
2022-11-07 20:31:00,,0823.0,5.01,0.00,27.0,25.9,00.0,35.6,28.9,12.8,0000.0,0018.20,0005.12,0003.81
2022-11-07 20:32:00,,0823.0,4.99,0.00,27.0,25.9,00.0,35.6,28.9,12.9,0000.0,0019.12,0005.13,0003.83
2022-11-07 20:33:00,,0823.0,5.02,0.00,27.0,25.9,00.0,35.6,28.9,12.9,0000.0,0017.79,0005.14,0003.86
2022-11-07 20:34:00,,0822.9,5.00,0.00,27.0,25.9,00.0,35.7,29.0,12.9,0000.0,0017.59,0005.20,0003.87
2022-11-07 20:35:00,,0822.9,5.00,0.00,27.1,26.0,00.0,35.7,29.0,13.0,0000.0,0017.36,0005.22,0003.89
2022-11-07 20:36:00,,0823.0,4.99,0.00,27.1,26.0,00.0,35.7,29.0,12.9,0000.0,0017.64,0005.23,0003.91
2022-11-07 20:37:00,,0823.0,5.01,0.00,27.1,26.0,00.0,35.7,29.0,12.9,0000.0,0017.43,0005.25,0003.93
2022-11-07 20:38:00,,0822.9,5.00,0.00,27.1,26.0,00.0,35.7,29.0,12.9,0000.0,0016.33,0005.28,0003.95
2022-11-07 20:39:00,,0823.0,5.00,0.00,27.1,26.0,00.0,35.8,29.0,12.8,0000.0,0016.33,0005.23,0003.98
2022-11-07 20:40:00,,0823.0,5.00,0.00,27.1,26.0,00.0,35.8,29.1,12.8,0000.0,0017.62,0005.30,0004.01
2022-11-07 20:41:00,,0822.9,5.00,0.00,27.1,26.0,00.0,35.8,29.0,12.8,0000.0,0018.23,0005.33,0004.02
2022-11-07 20:42:00,,0823.0,5.00,0.00,27.1,26.0,00.0,35.8,29.1,12.8,0000.0,0017.79,0005.30,0004.04
2022-11-07 20:43:00,,0823.0,5.01,0.00,27.2,26.0,00.0,35.8,29.1,12.8,0000.0,0017.96,0005.31,0004.05
2022-11-07 20:44:00,,0823.0,5.00,0.00,27.2,26.1,00.0,35.8,29.1,12.8,0000.0,0017.96,0005.33,0004.06
2022-11-07 20:45:00,,0823.0,5.00,0.00,27.2,26.1,00.0,35.8,29.2,12.9,0000.0,0018.27,0005.32,0004.06
2022-11-07 20:46:00,,0822.9,4.99,0.00,27.2,26.1,00.0,35.8,29.2,12.9,0000.0,0019.01,0005.39,0004.08
2022-11-07 20:47:00,,0823.0,4.99,0.00,27.2,26.1,00.0,35.9,29.1,12.8,0000.0,0018.28,0005.44,0004.09
2022-11-07 20:48:00,,0822.9,5.00,0.00,27.2,26.1,00.0,35.9,29.1,12.8,0000.0,0018.02,0005.42,0004.09
2022-11-07 20:49:00,,0822.9,5.00,0.00,27.2,26.1,00.0,35.9,29.1,12.9,0000.0,0019.65,0005.36,0004.10
2022-11-07 20:50:00,,0822.9,5.00,0.00,27.2,26.1,00.0,35.9,29.2,12.9,0000.0,0019.57,0005.39,0004.10
2022-11-07 20:51:00,,0822.8,5.00,0.00,27.2,26.1,00.0,35.9,29.1,12.8,0000.0,0019.21,0005.36,0004.11
2022-11-07 20:52:00,,0822.8,5.01,0.00,27.2,26.1,00.0,35.9,29.2,12.8,0000.0,0019.93,0005.38,0004.12
2022-11-07 20:53:00,,0822.9,5.00,0.00,27.2,26.1,00.0,35.9,29.2,12.9,0000.0,0020.85,0005.43,0004.13
2022-11-07 20:54:00,,0822.9,5.01,0.00,27.3,26.1,00.0,35.9,29.2,13.0,0000.0,0020.12,0005.46,0004.14
2022-11-07 20:55:00,,0822.8,5.00,0.00,27.3,26.1,00.0,35.9,29.2,12.9,0000.0,0020.16,0005.51,0004.15
2022-11-07 20:56:00,,0822.9,5.00,0.00,27.3,26.2,00.0,35.9,29.2,12.8,0000.0,0019.35,0005.50,0004.15
2022-11-07 20:57:00,,0822.9,5.00,0.00,27.3,26.2,00.0,36.0,29.2,12.7,0000.0,0018.54,0005.48,0004.16
2022-11-07 20:58:00,,0823.0,5.00,0.00,27.3,26.2,00.0,36.0,29.3,12.6,0000.0,0018.35,0005.46,0004.17
2022-11-07 20:59:00,,0823.0,5.01,0.00,27.3,26.2,00.0,36.0,29.3,12.7,0000.0,0018.15,0005.50,0004.18
